Location: Tierra Monte Subdivision
(35.2092°N, 106.4864°W)
Time: 01:49:57
(UTC+00:00)

H-2A R/B - Pass Details

Date: 30 March 2020
Orbit: 529 x 653 km, 98.3° (Epoch: 05 June)

Event Time Altitude Azimuth Distance (km) Brightness Sun altitude
Rises 11:15:19 0° 25° (NNE) 2,849 6.7 -20.6°
Reaches altitude 10° 11:17:46 10° 37° (NE) 1,919 5.9 -20.1°
Maximum altitude 11:21:22 28° 97° (E) 1,091 4.4 -19.4°
Drops below altitude 10° 11:24:49 10° 157° (SSE) 1,844 5.0 -18.7°
Sets 11:27:07 0° 169° (S) 2,715 5.8 -18.3°
